Location: Kermapucano
(48.0667°N, 3.3000°W)
Time: 19:34:27
(UTC+00:00)

Cosmos 2227 Rocket - Pass Details

Date: 29 November 2020
Orbit: 837 x 847 km, 71.0° (Epoch: 27 January)

Event Time Altitude Azimuth Distance (km) Brightness Sun altitude
Exits shadow 05:39:59 11° 341° (NNW) 2,415 4.3 -19.4°
Drops below altitude 10° 05:40:41 10° 348° (NNW) 2,469 4.4 -19.3°
Sets 05:45:23 0° 24° (NNE) 3,410 5.5 -18.5°
